TimePDT,TemperatureF,Dew PointF,Humidity,Sea Level PressureIn,VisibilityMPH,Wind Direction,Wind SpeedMPH,Gust SpeedMPH,PrecipitationIn,Events,Conditions,WindDirDegrees,DateUTC
12:15 AM,55.4,30.2,38,30.10,10.0,South,5.8,-,N/A,,Unknown,180,2013-10-05 07:15:00
12:35 AM,55.4,32.0,41,30.10,10.0,SSW,3.5,-,N/A,,Unknown,200,2013-10-05 07:35:00
12:55 AM,53.6,32.0,44,30.11,10.0,South,6.9,-,N/A,,Unknown,190,2013-10-05 07:55:00
1:15 AM,53.6,33.8,47,30.11,10.0,South,5.8,-,N/A,,Unknown,190,2013-10-05 08:15:00
1:35 AM,53.6,32.0,44,30.12,10.0,South,6.9,-,N/A,,Unknown,190,2013-10-05 08:35:00
1:55 AM,51.8,32.0,47,30.12,10.0,South,6.9,-,N/A,,Unknown,190,2013-10-05 08:55:00
2:15 AM,53.6,32.0,44,30.13,10.0,South,9.2,-,N/A,,Unknown,190,2013-10-05 09:15:00
2:35 AM,51.8,32.0,47,30.13,10.0,South,8.1,-,N/A,,Clear,190,2013-10-05 09:35:00
2:55 AM,51.8,33.8,50,30.13,10.0,SW,4.6,-,N/A,,Clear,220,2013-10-05 09:55:00
3:15 AM,53.6,30.2,41,30.13,10.0,South,6.9,-,N/A,,Clear,190,2013-10-05 10:15:00
3:35 AM,51.8,32.0,47,30.13,10.0,South,5.8,-,N/A,,Clear,190,2013-10-05 10:35:00
3:55 AM,51.8,32.0,47,30.13,10.0,SSW,5.8,-,N/A,,Clear,200,2013-10-05 10:55:00
4:15 AM,51.8,32.0,47,30.13,10.0,South,6.9,-,N/A,,Clear,190,2013-10-05 11:15:00
4:35 AM,50.0,32.0,50,30.13,10.0,South,3.5,-,N/A,,Clear,190,2013-10-05 11:35:00
4:55 AM,48.2,32.0,54,30.14,10.0,Calm,Calm,-,N/A,,Clear,0,2013-10-05 11:55:00
5:15 AM,46.4,35.6,66,30.14,10.0,South,3.5,-,N/A,,Clear,190,2013-10-05 12:15:00
5:35 AM,46.4,33.8,62,30.14,10.0,South,3.5,-,N/A,,Clear,190,2013-10-05 12:35:00
5:55 AM,48.2,33.8,58,30.15,10.0,South,4.6,-,N/A,,Clear,180,2013-10-05 12:55:00
6:15 AM,50.0,32.0,50,30.15,10.0,South,3.5,-,N/A,,Clear,180,2013-10-05 13:15:00
6:35 AM,50.0,32.0,50,30.15,10.0,SSW,5.8,-,N/A,,Clear,200,2013-10-05 13:35:00
6:55 AM,51.8,33.8,50,30.16,10.0,SSW,4.6,-,N/A,,Clear,200,2013-10-05 13:55:00
7:15 AM,55.4,28.4,36,30.16,10.0,SSW,5.8,-,N/A,,Clear,200,2013-10-05 14:15:00
7:35 AM,55.4,33.8,44,30.17,10.0,Calm,Calm,-,N/A,,Clear,0,2013-10-05 14:35:00
7:55 AM,55.4,37.4,51,30.18,10.0,Calm,Calm,-,N/A,,Clear,0,2013-10-05 14:55:00
8:15 AM,57.2,37.4,48,30.18,10.0,Calm,Calm,-,N/A,,Clear,0,2013-10-05 15:15:00
8:35 AM,62.6,33.8,34,30.19,10.0,Calm,Calm,-,N/A,,Clear,0,2013-10-05 15:35:00
8:55 AM,66.2,30.2,26,30.19,10.0,South,6.9,-,N/A,,Clear,180,2013-10-05 15:55:00
9:15 AM,68.0,32.0,26,30.20,10.0,South,5.8,-,N/A,,Clear,190,2013-10-05 16:15:00
9:35 AM,68.0,32.0,26,30.20,10.0,South,6.9,-,N/A,,Clear,170,2013-10-05 16:35:00
9:55 AM,69.8,32.0,25,30.21,10.0,SSE,5.8,-,N/A,,Clear,160,2013-10-05 16:55:00
10:15 AM,71.6,28.4,20,30.21,10.0,South,6.9,-,N/A,,Clear,170,2013-10-05 17:15:00
10:35 AM,73.4,30.2,20,30.21,10.0,South,6.9,-,N/A,,Clear,170,2013-10-05 17:35:00
10:55 AM,73.4,32.0,22,30.21,10.0,SE,4.6,-,N/A,,Clear,140,2013-10-05 17:55:00
11:15 AM,73.4,32.0,22,30.21,10.0,SSE,5.8,-,N/A,Rain,Light Rain,150,2013-10-05 18:15:00
11:35 AM,75.2,30.2,19,30.20,10.0,SSE,6.9,-,N/A,Rain,Light Rain,150,2013-10-05 18:35:00
11:55 AM,75.2,26.6,17,30.20,10.0,South,9.2,-,N/A,,Clear,170,2013-10-05 18:55:00
12:15 PM,77.0,26.6,16,30.20,10.0,South,6.9,-,N/A,Rain,Light Rain,170,2013-10-05 19:15:00
12:35 PM,77.0,26.6,16,30.19,10.0,SE,8.1,-,N/A,Rain,Light Rain,130,2013-10-05 19:35:00
12:55 PM,77.0,26.6,16,30.19,10.0,SE,5.8,-,N/A,Rain,Light Rain,140,2013-10-05 19:55:00
1:15 PM,78.8,28.4,16,30.18,10.0,SE,5.8,-,N/A,Rain,Light Rain,140,2013-10-05 20:15:00
1:35 PM,80.6,28.4,15,30.17,10.0,SE,6.9,-,N/A,Rain,Light Rain,130,2013-10-05 20:35:00
1:55 PM,80.6,28.4,15,30.16,10.0,SE,9.2,-,N/A,Rain,Light Rain,130,2013-10-05 20:55:00
2:15 PM,80.6,26.6,14,30.15,10.0,SE,8.1,-,N/A,Rain,Light Rain,130,2013-10-05 21:15:00
2:35 PM,82.4,24.8,12,30.15,10.0,SE,6.9,-,N/A,Rain,Light Rain,140,2013-10-05 21:35:00
2:55 PM,82.4,24.8,12,30.15,10.0,ESE,5.8,-,N/A,Rain,Light Rain,120,2013-10-05 21:55:00
3:15 PM,82.4,21.2,10,30.14,10.0,SE,6.9,-,N/A,Rain,Light Rain,130,2013-10-05 22:15:00
3:35 PM,82.4,23.0,11,30.14,10.0,ESE,5.8,-,N/A,Rain,Light Rain,120,2013-10-05 22:35:00
3:55 PM,82.4,24.8,12,30.14,9.0,SE,5.8,-,N/A,,Clear,140,2013-10-05 22:55:00
4:15 PM,82.4,24.8,12,30.13,10.0,SE,4.6,-,N/A,Rain,Light Rain,140,2013-10-05 23:15:00
4:35 PM,82.4,24.8,12,30.13,10.0,SE,5.8,-,N/A,,Clear,130,2013-10-05 23:35:00
4:55 PM,82.4,24.8,12,30.12,10.0,SE,4.6,-,N/A,,Clear,130,2013-10-05 23:55:00
5:15 PM,82.4,28.4,14,30.12,10.0,SE,4.6,-,N/A,,Clear,140,2013-10-06 00:15:00
5:35 PM,80.6,28.4,15,30.11,10.0,SE,4.6,-,N/A,,Clear,130,2013-10-06 00:35:00
5:55 PM,80.6,32.0,17,30.11,10.0,SE,3.5,-,N/A,,Clear,140,2013-10-06 00:55:00
6:15 PM,77.0,28.4,17,30.11,10.0,SSE,3.5,-,N/A,,Clear,150,2013-10-06 01:15:00
6:35 PM,71.6,28.4,20,30.11,10.0,WSW,3.5,-,N/A,,Clear,250,2013-10-06 01:35:00
6:55 PM,71.6,28.4,20,30.11,10.0,West,3.5,-,N/A,,Clear,280,2013-10-06 01:55:00
7:15 PM,68.0,28.4,23,30.12,10.0,North,5.8,-,N/A,,Clear,350,2013-10-06 02:15:00
7:35 PM,64.4,28.4,26,30.12,10.0,NNW,3.5,-,N/A,,Clear,340,2013-10-06 02:35:00
7:55 PM,62.6,32.0,32,30.12,10.0,Calm,Calm,-,N/A,,Clear,0,2013-10-06 02:55:00
8:15 PM,60.8,32.0,34,30.12,10.0,Calm,Calm,-,N/A,,Clear,0,2013-10-06 03:15:00
8:35 PM,60.8,30.2,31,30.13,10.0,Calm,Calm,-,N/A,,Clear,0,2013-10-06 03:35:00
8:55 PM,59.0,32.0,36,30.13,10.0,Calm,Calm,-,N/A,,Clear,0,2013-10-06 03:55:00
9:15 PM,55.4,32.0,41,30.13,10.0,North,3.5,-,N/A,,Clear,10,2013-10-06 04:15:00
9:35 PM,57.2,32.0,38,30.13,10.0,Calm,Calm,-,N/A,,Clear,0,2013-10-06 04:35:00
9:55 PM,53.6,32.0,44,30.13,10.0,Calm,Calm,-,N/A,,Clear,0,2013-10-06 04:55:00
10:15 PM,55.4,32.0,41,30.13,10.0,Calm,Calm,-,N/A,,Clear,0,2013-10-06 05:15:00
10:35 PM,55.4,32.0,41,30.13,10.0,Calm,Calm,-,N/A,,Clear,0,2013-10-06 05:35:00
10:55 PM,55.4,32.0,41,30.13,10.0,Calm,Calm,-,N/A,,Clear,0,2013-10-06 05:55:00
11:15 PM,55.4,32.0,41,30.13,10.0,Calm,Calm,-,N/A,,Clear,0,2013-10-06 06:15:00
11:35 PM,53.6,32.0,44,30.13,10.0,Calm,Calm,-,N/A,,Clear,0,2013-10-06 06:35:00
11:55 PM,53.6,32.0,44,30.13,10.0,SW,3.5,-,N/A,,Clear,220,2013-10-06 06:55:00